Total_Precipitation_Accumulation
0.07 0.18 0.34 0.70 1.38 1.47 1.03 0.65 0.54 0.43 0.41 0.37 0.38 0.36 0.44 0.66 0.99 1.39 0.76 0.37 0.30 0.29 0.38 0.57 0.82 0.83 0.82 0.74 0.75 0.76 0.71 0.67 0.66 0.70 0.74 0.70 0.66 0.57 0.51 0.53 0.57 0.63 0.64 0.59 0.68 0.72 0.69 0.75 0.86
0.15 0.26 0.43 0.91 1.31 1.07 0.81 0.61 0.51 0.36 0.34 0.38 0.50 0.51 0.41 0.51 0.52 0.51 0.52 0.44 0.29 0.24 0.28 0.34 0.62 0.70 0.72 0.69 0.69 0.73 0.67 0.58 0.58 0.60 0.61 0.58 0.60 0.56 0.52 0.54 0.57 0.61 0.59 0.62 0.71 0.72 0.74 0.74 0.78
0.22 0.34 0.54 0.90 0.88 0.60 0.52 0.42 0.36 0.34 0.40 0.48 0.55 0.59 0.59 0.59 0.48 0.50 0.48 0.39 0.34 0.27 0.25 0.38 0.51 0.52 0.58 0.59 0.60 0.64 0.65 0.60 0.54 0.51 0.56 0.55 0.55 0.55 0.54 0.57 0.59 0.62 0.62 0.62 0.65 0.75 0.81 0.80 0.77
0.23 0.37 0.52 0.63 0.49 0.29 0.23 0.24 0.28 0.39 0.56 0.78 0.79 0.77 0.71 0.54 0.43 0.42 0.46 0.41 0.35 0.26 0.21 0.31 0.43 0.42 0.49 0.51 0.52 0.56 0.58 0.57 0.55 0.53 0.57 0.62 0.65 0.67 0.60 0.55 0.59 0.65 0.69 0.70 0.72 0.80 0.85 0.78 0.76
0.17 0.36 0.56 0.52 0.30 0.23 0.19 0.20 0.31 0.44 0.61 0.79 0.84 0.91 0.93 0.68 0.46 0.45 0.44 0.46 0.39 0.28 0.21 0.27 0.43 0.42 0.43 0.46 0.49 0.51 0.53 0.55 0.52 0.54 0.56 0.64 0.70 0.69 0.63 0.62 0.64 0.66 0.70 0.72 0.77 0.80 0.83 0.83 0.86
0.24 0.37 0.43 0.37 0.21 0.18 0.21 0.24 0.31 0.44 0.61 0.78 1.05 1.15 1.11 0.88 0.74 0.64 0.53 0.64 0.51 0.36 0.25 0.30 0.47 0.52 0.48 0.49 0.50 0.52 0.52 0.52 0.53 0.53 0.56 0.61 0.66 0.67 0.68 0.71 0.74 0.68 0.71 0.75 0.76 0.77 0.74 0.79 0.92
0.21 0.25 0.27 0.24 0.19 0.17 0.20 0.24 0.31 0.48 0.62 0.87 1.15 1.30 1.19 1.05 0.88 0.77 0.72 0.78 0.81 0.64 0.52 0.43 0.46 0.49 0.51 0.59 0.62 0.56 0.55 0.55 0.55 0.58 0.60 0.59 0.62 0.64 0.65 0.77 0.80 0.75 0.76 0.79 0.81 0.78 0.78 0.83 0.96
0.10 0.15 0.16 0.14 0.13 0.13 0.18 0.22 0.34 0.56 0.74 0.95 1.14 1.29 1.39 1.08 0.90 0.98 1.17 1.32 1.40 1.26 1.04 0.78 0.58 0.61 0.58 0.63 0.65 0.62 0.52 0.52 0.57 0.63 0.63 0.66 0.74 0.79 0.88 0.88 0.85 0.88 0.95 0.97 1.01 0.95 0.89 1.00 1.10
0.07 0.10 0.11 0.07 0.06 0.14 0.16 0.21 0.30 0.41 0.61 0.85 1.03 1.09 1.01 0.96 1.12 1.39 1.75 1.78 1.61 1.62 1.43 1.28 1.04 0.79 0.82 0.78 0.67 0.76 0.69 0.67 0.80 0.98 0.96 1.04 1.34 1.31 1.41 1.18 1.08 1.17 1.36 1.41 1.43 1.40 1.32 1.29 1.25
0.04 0.05 0.04 0.02 0.02 0.06 0.12 0.18 0.29 0.44 0.85 1.43 1.42 1.08 0.88 1.06 1.32 1.55 1.86 2.08 1.68 1.65 1.46 1.45 1.38 1.09 1.00 0.95 1.13 1.41 1.26 1.27 1.35 1.58 1.47 1.74 1.86 1.75 1.30 1.38 1.53 1.65 2.00 2.11 2.13 2.15 1.95 1.70 1.58
0.02 0.02 0.02 0.01 0.02 0.02 0.05 0.13 0.23 0.47 0.95 1.64 1.80 1.35 1.17 1.27 1.65 1.67 1.92 2.13 2.04 1.86 1.72 1.44 1.55 1.41 1.37 1.49 1.55 1.70 1.79 1.78 1.76 1.85 1.88 2.11 1.94 1.66 1.58 1.88 2.22 2.38 2.54 2.70 2.74 2.66 2.24 2.21 2.39
0.01 0.00 0.01 0.01 0.01 0.02 0.09 0.18 0.28 0.36 0.79 1.14 1.12 1.01 1.17 1.39 1.73 1.95 2.02 2.25 2.29 2.14 2.03 1.90 1.87 1.87 1.84 1.86 1.78 1.66 1.51 1.54 1.66 1.82 1.85 2.05 2.13 2.15 2.15 2.28 2.40 2.59 2.92 3.27 3.19 3.16 2.95 2.99 2.83
0.01 0.00 0.01 0.02 0.03 0.05 0.11 0.15 0.27 0.42 0.54 0.67 0.64 0.83 1.27 1.55 1.94 2.28 2.64 2.86 2.91 2.83 2.68 2.67 2.73 2.52 2.28 2.19 1.86 1.52 1.42 1.32 1.40 1.52 1.63 1.68 1.97 2.21 2.26 2.13 2.16 2.16 2.37 2.76 3.25 3.23 3.41 3.43 3.11
0.01 0.01 0.02 0.04 0.04 0.05 0.10 0.15 0.30 0.50 0.52 0.62 0.78 1.02 1.42 1.87 2.25 2.50 3.25 3.65 3.89 3.82 3.63 3.43 3.48 3.02 2.65 2.38 1.99 1.72 1.48 1.47 1.40 1.33 1.36 1.56 1.78 2.03 2.00 1.97 2.15 2.20 2.14 2.29 2.72 2.92 3.25 3.27 2.94
0.03 0.06 0.07 0.07 0.05 0.06 0.12 0.29 0.45 0.57 0.75 0.79 0.97 1.19 1.53 2.12 2.59 3.04 3.58 4.32 4.76 4.92 4.53 3.94 3.66 3.32 3.02 2.73 2.23 1.85 1.67 1.42 1.40 1.39 1.34 1.40 1.52 1.74 1.73 1.81 1.80 1.88 1.84 1.91 2.09 2.35 2.63 2.61 2.49
0.07 0.13 0.22 0.12 0.08 0.09 0.14 0.53 0.71 0.60 0.88 1.21 1.17 1.44 1.84 2.37 2.84 3.51 4.20 5.02 5.56 5.72 5.13 4.40 3.70 3.71 3.53 3.20 2.54 2.05 1.75 1.58 1.49 1.42 1.30 1.23 1.26 1.25 1.33 1.37 1.35 1.37 1.27 1.40 1.70 1.81 2.02 2.25 2.36
0.06 0.11 0.18 0.19 0.13 0.11 0.20 0.61 0.79 0.59 0.75 1.04 1.29 1.54 1.96 2.33 2.68 3.32 3.97 4.77 5.36 5.89 5.68 5.05 4.85 4.60 3.93 3.18 2.56 2.13 1.84 1.67 1.49 1.41 1.32 1.26 1.17 1.13 1.17 1.24 1.32 1.10 1.07 1.15 1.10 1.45 1.65 1.89 2.02
0.06 0.07 0.12 0.24 0.18 0.18 0.27 0.47 0.75 0.78 0.95 1.16 1.30 1.45 1.73 1.93 2.27 2.78 3.30 3.74 4.32 4.83 4.73 4.67 4.77 4.30 3.67 3.03 2.52 2.21 1.94 1.64 1.44 1.35 1.35 1.28 1.22 1.19 1.27 1.12 1.13 1.01 1.14 1.29 1.38 1.62 1.57 1.53 1.65
0.05 0.06 0.10 0.17 0.18 0.24 0.37 0.50 0.72 0.88 1.10 1.26 1.29 1.25 1.33 1.55 1.86 2.16 2.53 2.88 3.09 3.25 3.36 3.67 3.88 3.59 3.10 2.67 2.16 1.93 1.84 1.66 1.48 1.34 1.25 1.27 1.22 1.33 1.40 1.15 1.38 1.23 1.20 1.27 1.31 1.43 1.43 1.31 1.29
0.05 0.07 0.13 0.16 0.16 0.21 0.36 0.65 0.82 0.90 0.93 1.00 1.10 1.06 1.09 1.29 1.39 1.48 1.70 2.03 2.12 2.34 2.65 3.03 3.27 3.11 2.57 2.32 2.10 1.95 1.85 1.72 1.67 1.52 1.44 1.28 1.24 1.29 1.19 1.38 1.23 1.26 1.34 1.38 1.45 1.53 1.52 1.37 1.31
0.06 0.07 0.08 0.12 0.12 0.22 0.38 0.90 1.01 0.90 0.80 0.71 0.82 0.87 0.84 0.92 1.02 1.02 1.10 1.27 1.58 2.05 2.20 2.26 2.52 2.72 2.45 2.31 2.22 2.11 2.00 1.81 1.84 1.73 1.56 1.27 1.17 1.20 1.22 1.22 1.23 1.40 1.22 1.43 1.59 1.55 1.60 1.57 1.43
0.05 0.05 0.04 0.04 0.09 0.33 0.46 0.91 1.03 0.91 0.89 0.71 0.67 0.66 0.56 0.54 0.70 0.84 0.85 0.91 1.11 1.43 1.72 1.97 2.22 2.39 2.33 2.20 1.99 1.83 1.64 1.53 1.52 1.54 1.55 1.43 1.32 1.16 1.15 1.15 1.29 1.42 1.24 1.51 1.25 1.30 1.51 1.61 1.47
0.02 0.02 0.03 0.05 0.12 0.31 0.44 0.78 1.00 0.83 0.97 0.73 0.46 0.33 0.29 0.29 0.40 0.57 0.68 0.77 0.79 0.99 1.38 1.80 2.14 2.38 2.28 1.99 1.81 1.79 1.69 1.64 1.57 1.50 1.65 1.53 1.47 1.27 1.11 1.17 1.28 1.33 1.25 1.32 1.33 1.57 1.48 1.44 1.42
0.01 0.02 0.08 0.18 0.32 0.64 0.63 0.65 0.93 0.71 0.54 0.39 0.28 0.20 0.21 0.23 0.27 0.36 0.43 0.53 0.67 0.80 1.04 1.32 1.65 1.94 1.98 1.83 1.73 1.75 1.77 1.75 1.62 1.42 1.39 1.31 1.32 1.28 1.22 1.28 1.31 1.26 1.19 1.23 1.26 1.38 1.41 1.47 1.53
0.02 0.03 0.18 0.40 0.66 0.86 0.51 0.66 1.02 0.59 0.41 0.26 0.21 0.19 0.19 0.17 0.22 0.32 0.40 0.42 0.51 0.60 0.73 0.92 1.21 1.42 1.60 1.67 1.68 1.66 1.76 1.75 1.57 1.40 1.34 1.34 1.19 1.12 1.16 1.26 1.38 1.32 1.32 1.29 1.37 1.36 1.31 1.38 1.43
0.02 0.02 0.07 0.15 0.28 0.44 0.50 1.12 0.98 0.42 0.27 0.23 0.19 0.20 0.18 0.18 0.19 0.30 0.40 0.41 0.42 0.46 0.59 0.74 0.95 1.16 1.36 1.48 1.54 1.55 1.51 1.41 1.39 1.46 1.37 1.32 1.27 1.20 1.17 1.24 1.24 1.26 1.29 1.29 1.54 1.35 1.24 1.27 1.25
0.02 0.02 0.03 0.04 0.07 0.27 0.61 0.79 0.52 0.25 0.22 0.24 0.21 0.21 0.20 0.24 0.30 0.36 0.46 0.48 0.37 0.38 0.47 0.55 0.73 0.91 1.06 1.27 1.37 1.30 1.32 1.23 1.23 1.28 1.27 1.22 1.30 1.31 1.27 1.18 1.15 1.20 1.29 1.37 1.45 1.36 1.36 1.39 1.24
0.03 0.02 0.02 0.02 0.05 0.19 0.45 0.70 0.72 0.44 0.33 0.28 0.25 0.24 0.21 0.27 0.41 0.45 0.41 0.44 0.37 0.35 0.42 0.50 0.65 0.76 0.85 1.03 1.10 1.03 1.21 1.21 1.29 1.26 1.18 1.11 1.10 1.13 1.19 1.17 1.11 1.16 1.24 1.34 1.43 1.46 1.56 1.63 1.48
0.04 0.03 0.03 0.03 0.04 0.10 0.30 0.48 0.51 0.46 0.40 0.28 0.23 0.26 0.32 0.31 0.43 0.44 0.40 0.42 0.39 0.37 0.41 0.48 0.63 0.72 0.77 0.90 0.94 1.00 1.06 1.09 1.15 1.18 1.19 1.16 1.11 1.10 1.14 1.19 1.21 1.22 1.26 1.36 1.41 1.38 1.58 1.72 1.74
0.05 0.06 0.06 0.05 0.05 0.06 0.12 0.24 0.26 0.31 0.37 0.31 0.30 0.36 0.39 0.28 0.29 0.35 0.40 0.46 0.35 0.35 0.40 0.44 0.52 0.58 0.63 0.79 0.92 0.97 1.06 1.07 1.06 1.10 1.27 1.29 1.25 1.24 1.26 1.30 1.37 1.34 1.32 1.39 1.38 1.29 1.36 1.55 1.77